Weather in Hat Creek

United States     40°50′31″N   121°25′37″W
temp.,
°C
wind,
m/s
gust,
m/s
humid.,
%
clouds,
%
prec.,
mm/h
press.,
hPa
HPBL,
m
25 may, wed
wed2523:00+12sse32504 0.0 101631
02:00+11sse22555 0.0 101618
05:00+9se22625 0.0 101614
08:00+17ene12425 0.0 1014269
11:00+24n34265 0.0 10111666
14:00+27nw45188 0.0 10092928
17:00+27wsw55125 0.0 10082720
20:00+18ssw32334 0.0 101024
26 may, thu
thu2623:00+15s32385 0.0 101134
02:00+14s334382 0.0 101148
05:00+12s2251100 0.0 101130
08:00+17wsw1240100 0.0 1010229
11:00+23w3820100 0.0 10082135
14:00+23wsw51020100 0.0 10092335
17:00+19wsw5930100 0.0 10102018
20:00+14wsw355272 0.0 1012204
27 may, fri
fri2723:00+9ssw34635 0.0 101568
02:00+9s3357100 0.0 101550
05:00+8ssw2259100 0.0 101531
08:00+13sw2342100 0.0 1014592
11:00+18wsw4732100 0.0 10132150
14:00+19wsw61031100 0.0 10122287
17:00+16sw5941100 0.0 10102164
20:00+13sw3855100 0.0 1010981
28 may, sat
sat2823:00+8ssw347113 0.0 101172
02:00+6ssw3571100 0.0 1010143
05:00+7sw2881100 0.1 1009815
08:00+7sw3884100 0.2 1009775
11:00+7sw41183100 0.6 10081231
14:00+7sw6139192 6.2 10081433
17:00+9wsw597012 7.3 10081221
20:00+7sw4106039 0.2 10091207
29 may, sun
sun2923:00+1ssw218638 0.3 101417
02:00−1sse11925 0.0 101511
05:00−2se119310 0.0 101611
08:00+4ne12575 0.0 1014596
11:00+9n333769 0.0 10112162
14:00+11nw442999 0.1 10092954
17:00+9nnw5543100 0.2 10091776
20:00+4ne287593 0.7 1012889